Time,TemperatureF,DewpointF,PressureIn,WindDirection,WindDirectionDegrees,WindSpeedMPH,WindSpeedGustMPH,Humidity,HourlyPrecipIn,Conditions,Clouds,dailyrainin,SoftwareType,DateUTC
2013-06-18 00:02:00,61.2,42.8,29.91,WNW,300,12.0,18.0,31,0.00,,,0.00,meteohub,2013-06-18 07:02:00,
2013-06-18 00:07:00,61.5,42.8,29.91,WSW,243,13.0,17.0,31,0.00,,,0.00,meteohub,2013-06-18 07:07:00,
2013-06-18 00:12:00,61.9,42.8,29.91,West,267,11.0,18.0,31,0.00,,,0.00,meteohub,2013-06-18 07:12:00,
2013-06-18 00:17:00,61.9,42.6,29.90,NNE,23,13.0,18.0,31,0.00,,,0.00,meteohub,2013-06-18 07:17:00,
2013-06-18 00:23:00,61.7,42.6,29.90,WNW,297,14.0,18.0,31,0.00,,,0.00,meteohub,2013-06-18 07:23:00,
2013-06-18 00:28:00,61.9,42.6,29.90,WSW,243,11.0,18.0,31,0.00,,,0.00,meteohub,2013-06-18 07:28:00,
2013-06-18 00:33:00,62.1,42.4,29.90,West,263,14.0,18.0,31,0.00,,,0.00,meteohub,2013-06-18 07:33:00,
2013-06-18 00:39:00,61.9,42.3,29.90,WSW,246,14.0,18.0,31,0.00,,,0.00,meteohub,2013-06-18 07:39:00,
2013-06-18 00:44:00,62.1,42.3,29.90,NNW,339,14.0,18.0,31,0.00,,,0.00,meteohub,2013-06-18 07:44:00,
2013-06-18 00:49:00,62.1,42.3,29.90,SW,236,11.0,17.0,31,0.00,,,0.00,meteohub,2013-06-18 07:49:00,
2013-06-18 00:55:00,62.1,42.3,29.90,WSW,250,13.0,18.0,31,0.00,,,0.00,meteohub,2013-06-18 07:55:00,
2013-06-18 01:00:00,62.2,42.3,29.90,West,271,9.0,21.0,31,0.00,,,0.00,meteohub,2013-06-18 08:00:00,
2013-06-18 01:06:00,62.2,41.2,29.90,SW,228,12.0,21.0,30,0.00,,,0.00,meteohub,2013-06-18 08:06:00,
2013-06-18 01:11:00,62.2,41.2,29.90,West,278,12.0,20.0,30,0.00,,,0.00,meteohub,2013-06-18 08:11:00,
2013-06-18 01:17:00,62.2,41.2,29.91,WSW,246,8.0,18.0,30,0.00,,,0.00,meteohub,2013-06-18 08:17:00,
2013-06-18 01:22:00,62.1,41.0,29.91,NNW,342,5.0,18.0,30,0.00,,,0.00,meteohub,2013-06-18 08:22:00,
2013-06-18 01:27:00,62.2,41.0,29.90,NNE,24,6.0,17.0,30,0.00,,,0.00,meteohub,2013-06-18 08:27:00,
2013-06-18 01:32:00,62.2,40.8,29.90,West,267,6.0,15.0,30,0.00,,,0.00,meteohub,2013-06-18 08:32:00,
2013-06-18 01:37:00,61.9,40.8,29.90,South,176,6.0,15.0,30,0.00,,,0.00,meteohub,2013-06-18 08:37:00,
2013-06-18 01:42:00,61.9,40.6,29.90,NW,314,9.0,14.0,30,0.00,,,0.00,meteohub,2013-06-18 08:42:00,
2013-06-18 01:47:00,61.7,40.6,29.89,East,89,6.0,14.0,30,0.00,,,0.00,meteohub,2013-06-18 08:47:00,
2013-06-18 01:52:00,61.5,40.5,29.89,NNW,338,6.0,15.0,30,0.00,,,0.00,meteohub,2013-06-18 08:52:00,
2013-06-18 01:58:00,61.7,40.5,29.89,SW,218,8.0,15.0,30,0.00,,,0.00,meteohub,2013-06-18 08:58:00,
2013-06-18 02:03:00,61.7,40.5,29.89,WNW,285,7.0,15.0,30,0.00,,,0.00,meteohub,2013-06-18 09:03:00,
2013-06-18 02:08:00,61.7,40.5,29.89,South,176,10.0,13.0,30,0.00,,,0.00,meteohub,2013-06-18 09:08:00,
2013-06-18 02:14:00,61.7,40.5,29.89,West,273,6.0,14.0,30,0.00,,,0.00,meteohub,2013-06-18 09:14:00,
2013-06-18 02:19:00,61.9,40.5,29.89,SW,232,7.0,14.0,30,0.00,,,0.00,meteohub,2013-06-18 09:19:00,
2013-06-18 02:25:00,61.9,40.3,29.89,WSW,245,7.0,16.0,30,0.00,,,0.00,meteohub,2013-06-18 09:25:00,
2013-06-18 02:30:00,61.9,40.3,29.89,SW,233,10.0,16.0,30,0.00,,,0.00,meteohub,2013-06-18 09:30:00,
2013-06-18 02:35:00,62.1,40.3,29.88,SW,226,9.0,17.0,30,0.00,,,0.00,meteohub,2013-06-18 09:35:00,
2013-06-18 02:41:00,62.1,40.1,29.88,West,274,12.0,17.0,30,0.00,,,0.00,meteohub,2013-06-18 09:41:00,
2013-06-18 02:46:00,62.1,39.9,29.88,NNW,342,3.0,15.0,30,0.00,,,0.00,meteohub,2013-06-18 09:46:00,
2013-06-18 02:51:00,62.2,39.9,29.88,NW,308,6.0,16.0,30,0.00,,,0.00,meteohub,2013-06-18 09:51:00,
2013-06-18 02:56:00,62.1,39.9,29.88,SW,232,12.0,16.0,30,0.00,,,0.00,meteohub,2013-06-18 09:56:00,
2013-06-18 03:02:00,62.1,39.7,29.88,SW,228,11.0,16.0,30,0.00,,,0.00,meteohub,2013-06-18 10:02:00,
2013-06-18 03:07:00,62.1,39.7,29.88,SW,228,8.0,13.0,30,0.00,,,0.00,meteohub,2013-06-18 10:07:00,
2013-06-18 03:12:00,62.1,39.7,29.88,North,356,4.0,13.0,30,0.00,,,0.00,meteohub,2013-06-18 10:12:00,
2013-06-18 03:17:00,62.4,39.6,29.88,NE,44,7.0,13.0,30,0.00,,,0.00,meteohub,2013-06-18 10:17:00,
2013-06-18 03:22:00,62.8,39.6,29.88,SW,235,9.0,12.0,30,0.00,,,0.00,meteohub,2013-06-18 10:22:00,
2013-06-18 03:27:00,63.0,39.6,29.88,NNW,330,8.0,13.0,30,0.00,,,0.00,meteohub,2013-06-18 10:27:00,
2013-06-18 03:33:00,63.0,39.4,29.88,WNW,288,8.0,13.0,30,0.00,,,0.00,meteohub,2013-06-18 10:33:00,
2013-06-18 03:38:00,62.8,39.4,29.88,North,359,6.0,14.0,30,0.00,,,0.00,meteohub,2013-06-18 10:38:00,
2013-06-18 03:44:00,63.0,39.4,29.88,SSW,211,10.0,15.0,30,0.00,,,0.00,meteohub,2013-06-18 10:44:00,
2013-06-18 03:49:00,63.0,39.4,29.88,WSW,256,12.0,15.0,30,0.00,,,0.00,meteohub,2013-06-18 10:49:00,
2013-06-18 03:55:00,63.0,39.4,29.88,NE,45,3.0,16.0,30,0.00,,,0.00,meteohub,2013-06-18 10:55:00,
2013-06-18 04:00:00,62.8,39.2,29.88,West,269,11.0,16.0,30,0.00,,,0.00,meteohub,2013-06-18 11:00:00,
2013-06-18 04:06:00,63.0,39.2,29.88,ENE,63,11.0,16.0,30,0.00,,,0.00,meteohub,2013-06-18 11:06:00,
2013-06-18 04:11:00,63.0,39.2,29.88,SW,233,14.0,16.0,30,0.00,,,0.00,meteohub,2013-06-18 11:11:00,
2013-06-18 04:17:00,63.1,39.0,29.88,West,263,12.0,16.0,30,0.00,,,0.00,meteohub,2013-06-18 11:17:00,
2013-06-18 04:22:00,63.0,39.0,29.88,NNE,13,6.0,20.0,30,0.00,,,0.00,meteohub,2013-06-18 11:22:00,
2013-06-18 04:27:00,62.8,39.0,29.88,West,269,6.0,20.0,30,0.00,,,0.00,meteohub,2013-06-18 11:27:00,
2013-06-18 04:33:00,62.4,39.0,29.88,North,5,8.0,20.0,30,0.00,,,0.00,meteohub,2013-06-18 11:33:00,
2013-06-18 04:38:00,62.4,38.8,29.88,East,93,7.0,18.0,30,0.00,,,0.00,meteohub,2013-06-18 11:38:00,
2013-06-18 04:43:00,62.6,38.8,29.88,SSW,204,10.0,18.0,30,0.00,,,0.00,meteohub,2013-06-18 11:43:00,
2013-06-18 04:48:00,62.6,38.8,29.88,West,269,10.0,20.0,30,0.00,,,0.00,meteohub,2013-06-18 11:48:00,
2013-06-18 04:53:00,62.4,38.7,29.88,NNW,335,6.0,20.0,30,0.00,,,0.00,meteohub,2013-06-18 11:53:00,
2013-06-18 04:58:00,62.6,38.7,29.88,NNW,330,9.0,20.0,30,0.00,,,0.00,meteohub,2013-06-18 11:58:00,
2013-06-18 05:03:00,62.8,38.7,29.88,West,276,12.0,18.0,30,0.00,,,0.00,meteohub,2013-06-18 12:03:00,
2013-06-18 05:09:00,62.4,38.7,29.88,SW,236,6.0,17.0,30,0.00,,,0.00,meteohub,2013-06-18 12:09:00,
2013-06-18 05:14:00,62.6,38.5,29.88,South,184,12.0,17.0,30,0.00,,,0.00,meteohub,2013-06-18 12:14:00,
2013-06-18 05:19:00,62.8,38.5,29.88,NE,56,11.0,17.0,30,0.00,,,0.00,meteohub,2013-06-18 12:19:00,
2013-06-18 05:25:00,62.6,38.3,29.88,NW,321,11.0,18.0,30,0.00,,,0.00,meteohub,2013-06-18 12:25:00,
2013-06-18 05:30:00,62.8,38.3,29.88,SSW,204,12.0,18.0,30,0.00,,,0.00,meteohub,2013-06-18 12:30:00,
2013-06-18 05:36:00,62.6,38.3,29.88,ENE,75,8.0,19.0,30,0.00,,,0.00,meteohub,2013-06-18 12:36:00,
2013-06-18 05:41:00,62.4,38.3,29.88,NE,37,8.0,19.0,30,0.00,,,0.00,meteohub,2013-06-18 12:41:00,
2013-06-18 05:47:00,62.4,38.3,29.88,WSW,255,14.0,18.0,30,0.00,,,0.00,meteohub,2013-06-18 12:47:00,
2013-06-18 05:52:00,62.6,37.4,29.88,WSW,243,15.0,19.0,29,0.00,,,0.00,meteohub,2013-06-18 12:52:00,
2013-06-18 05:57:00,62.8,37.4,29.88,WSW,240,15.0,19.0,29,0.00,,,0.00,meteohub,2013-06-18 12:57:00,
2013-06-18 06:02:00,62.6,37.4,29.88,North,352,10.0,19.0,29,0.00,,,0.00,meteohub,2013-06-18 13:02:00,
2013-06-18 06:07:00,62.8,37.2,29.88,NE,39,11.0,18.0,29,0.00,,,0.00,meteohub,2013-06-18 13:07:00,
2013-06-18 06:12:00,62.4,37.2,29.88,NNW,347,15.0,19.0,29,0.00,,,0.00,meteohub,2013-06-18 13:12:00,
2013-06-18 06:18:00,62.4,37.2,29.88,NNW,346,7.0,19.0,29,0.00,,,0.00,meteohub,2013-06-18 13:18:00,
2013-06-18 06:23:00,62.6,37.2,29.88,WSW,246,16.0,22.0,29,0.00,,,0.00,meteohub,2013-06-18 13:23:00,
2013-06-18 06:28:00,62.4,37.0,29.88,WNW,297,13.0,22.0,29,0.00,,,0.00,meteohub,2013-06-18 13:28:00,
2013-06-18 06:34:00,62.4,37.0,29.88,NNE,23,12.0,22.0,29,0.00,,,0.00,meteohub,2013-06-18 13:34:00,
2013-06-18 06:39:00,62.4,37.0,29.88,WNW,288,16.0,22.0,29,0.00,,,0.00,meteohub,2013-06-18 13:39:00,
2013-06-18 06:44:00,62.6,37.0,29.88,WNW,297,8.0,21.0,29,0.00,,,0.00,meteohub,2013-06-18 13:44:00,
2013-06-18 06:50:00,63.0,37.0,29.88,WNW,302,9.0,21.0,29,0.00,,,0.00,meteohub,2013-06-18 13:50:00,
2013-06-18 06:55:00,63.0,37.0,29.88,NW,316,9.0,21.0,29,0.00,,,0.00,meteohub,2013-06-18 13:55:00,
2013-06-18 07:01:00,63.3,36.9,29.88,SW,226,13.0,20.0,29,0.00,,,0.00,meteohub,2013-06-18 14:01:00,
2013-06-18 07:06:00,63.5,36.9,29.88,NNW,343,8.0,22.0,29,0.00,,,0.00,meteohub,2013-06-18 14:06:00,
2013-06-18 07:11:00,63.7,36.7,29.88,WSW,249,11.0,22.0,29,0.00,,,0.00,meteohub,2013-06-18 14:11:00,
2013-06-18 07:16:00,64.0,36.7,29.88,NW,310,9.0,20.0,29,0.00,,,0.00,meteohub,2013-06-18 14:16:00,
2013-06-18 07:21:00,64.6,36.7,29.88,WNW,284,9.0,20.0,29,0.00,,,0.00,meteohub,2013-06-18 14:21:00,
2013-06-18 07:26:00,64.8,36.7,29.88,WSW,240,16.0,23.0,29,0.00,,,0.00,meteohub,2013-06-18 14:26:00,
2013-06-18 07:32:00,64.9,36.7,29.88,NNW,328,10.0,23.0,29,0.00,,,0.00,meteohub,2013-06-18 14:32:00,
2013-06-18 07:37:00,65.1,36.7,29.89,WSW,248,14.0,23.0,29,0.00,,,0.00,meteohub,2013-06-18 14:37:00,
2013-06-18 07:42:00,65.3,36.7,29.89,WSW,250,17.0,22.0,29,0.00,,,0.00,meteohub,2013-06-18 14:42:00,
2013-06-18 07:47:00,65.7,37.4,29.89,NNW,328,9.0,24.0,30,0.00,,,0.00,meteohub,2013-06-18 14:47:00,
2013-06-18 07:52:00,65.8,37.4,29.89,WNW,285,10.0,24.0,30,0.00,,,0.00,meteohub,2013-06-18 14:52:00,
2013-06-18 07:57:00,66.0,37.4,29.89,ESE,110,6.0,22.0,30,0.00,,,0.00,meteohub,2013-06-18 14:57:00,
2013-06-18 08:02:00,66.2,37.4,29.89,East,81,10.0,21.0,30,0.00,,,0.00,meteohub,2013-06-18 15:02:00,
2013-06-18 08:08:00,66.4,37.4,29.90,NNW,332,7.0,22.0,30,0.00,,,0.00,meteohub,2013-06-18 15:08:00,
2013-06-18 08:13:00,66.6,37.4,29.90,NW,322,18.0,22.0,30,0.00,,,0.00,meteohub,2013-06-18 15:13:00,
2013-06-18 08:18:00,66.7,37.4,29.90,North,352,4.0,22.0,30,0.00,,,0.00,meteohub,2013-06-18 15:18:00,
2013-06-18 08:24:00,66.7,37.4,29.90,SW,232,15.0,22.0,30,0.00,,,0.00,meteohub,2013-06-18 15:24:00,
2013-06-18 08:29:00,66.9,37.4,29.90,NW,312,6.0,23.0,30,0.00,,,0.00,meteohub,2013-06-18 15:29:00,
2013-06-18 08:34:00,67.3,37.4,29.90,NNE,12,8.0,24.0,30,0.00,,,0.00,meteohub,2013-06-18 15:34:00,
2013-06-18 08:39:00,67.5,37.4,29.90,WSW,246,17.0,24.0,30,0.00,,,0.00,meteohub,2013-06-18 15:39:00,
2013-06-18 08:44:00,67.5,37.4,29.90,SW,215,14.0,24.0,30,0.00,,,0.00,meteohub,2013-06-18 15:44:00,
2013-06-18 08:50:00,67.6,37.4,29.90,WNW,287,10.0,20.0,30,0.00,,,0.00,meteohub,2013-06-18 15:50:00,
2013-06-18 08:55:00,67.8,37.4,29.90,ESE,107,11.0,22.0,30,0.00,,,0.00,meteohub,2013-06-18 15:55:00,
2013-06-18 09:00:00,68.0,37.4,29.90,South,180,6.0,22.0,30,0.00,,,0.00,meteohub,2013-06-18 16:00:00,
2013-06-18 09:05:00,68.5,37.4,29.90,WSW,241,21.0,22.0,30,0.00,,,0.00,meteohub,2013-06-18 16:05:00,
2013-06-18 09:10:00,68.5,37.4,29.90,NNW,329,8.0,22.0,30,0.00,,,0.00,meteohub,2013-06-18 16:10:00,
2013-06-18 09:16:00,68.7,37.4,29.90,SW,219,6.0,22.0,30,0.00,,,0.00,meteohub,2013-06-18 16:16:00,
2013-06-18 09:21:00,68.9,37.4,29.90,NNE,18,6.0,22.0,30,0.00,,,0.00,meteohub,2013-06-18 16:21:00,
2013-06-18 09:26:00,69.3,37.4,29.90,North,351,12.0,23.0,30,0.00,,,0.00,meteohub,2013-06-18 16:26:00,
2013-06-18 09:32:00,69.4,37.4,29.90,NNW,332,8.0,25.0,30,0.00,,,0.00,meteohub,2013-06-18 16:32:00,
2013-06-18 09:37:00,69.6,37.4,29.90,SSW,198,8.0,25.0,30,0.00,,,0.00,meteohub,2013-06-18 16:37:00,
2013-06-18 09:42:00,70.0,37.4,29.90,NW,304,8.0,25.0,30,0.00,,,0.00,meteohub,2013-06-18 16:42:00,
2013-06-18 09:47:00,70.3,37.4,29.90,North,5,13.0,23.0,30,0.00,,,0.00,meteohub,2013-06-18 16:47:00,
2013-06-18 09:52:00,70.7,38.3,29.90,West,277,14.0,23.0,31,0.00,,,0.00,meteohub,2013-06-18 16:52:00,
2013-06-18 09:57:00,70.3,38.3,29.90,SW,226,19.0,23.0,31,0.00,,,0.00,meteohub,2013-06-18 16:57:00,
2013-06-18 10:02:00,70.7,38.3,29.90,WSW,246,14.0,25.0,31,0.00,,,0.00,meteohub,2013-06-18 17:02:00,
2013-06-18 10:08:00,71.1,38.3,29.90,NNW,332,6.0,27.0,31,0.00,,,0.00,meteohub,2013-06-18 17:08:00,
2013-06-18 10:13:00,71.6,38.3,29.90,WSW,242,22.0,27.0,31,0.00,,,0.00,meteohub,2013-06-18 17:13:00,
2013-06-18 10:18:00,71.8,38.5,29.90,NNW,333,8.0,27.0,31,0.00,,,0.00,meteohub,2013-06-18 17:18:00,
2013-06-18 10:23:00,72.1,38.5,29.90,SW,225,22.0,25.0,31,0.00,,,0.00,meteohub,2013-06-18 17:23:00,
2013-06-18 10:28:00,72.0,38.5,29.90,NW,316,19.0,26.0,31,0.00,,,0.00,meteohub,2013-06-18 17:28:00,
2013-06-18 10:34:00,71.4,38.5,29.90,WSW,239,19.0,27.0,31,0.00,,,0.00,meteohub,2013-06-18 17:34:00,
2013-06-18 10:39:00,71.8,38.5,29.90,NNE,18,15.0,27.0,31,0.00,,,0.00,meteohub,2013-06-18 17:39:00,
2013-06-18 10:44:00,72.0,38.5,29.90,WSW,245,22.0,33.0,31,0.00,,,0.00,meteohub,2013-06-18 17:44:00,
2013-06-18 10:49:00,72.1,38.5,29.90,WSW,254,21.0,33.0,31,0.00,,,0.00,meteohub,2013-06-18 17:49:00,
2013-06-18 10:54:00,71.8,38.5,29.91,WSW,257,18.0,33.0,31,0.00,,,0.00,meteohub,2013-06-18 17:54:00,
2013-06-18 10:59:00,71.4,38.5,29.91,WSW,243,25.0,30.0,31,0.00,,,0.00,meteohub,2013-06-18 17:59:00,
2013-06-18 11:04:00,71.8,38.5,29.91,West,264,18.0,31.0,31,0.00,,,0.00,meteohub,2013-06-18 18:04:00,
2013-06-18 11:09:00,72.1,38.7,29.91,NW,317,8.0,31.0,31,0.00,,,0.00,meteohub,2013-06-18 18:09:00,
2013-06-18 11:14:00,72.5,38.7,29.91,East,94,10.0,31.0,31,0.00,,,0.00,meteohub,2013-06-18 18:14:00,
2013-06-18 11:20:00,72.7,38.7,29.91,WSW,237,16.0,30.0,31,0.00,,,0.00,meteohub,2013-06-18 18:20:00,
2013-06-18 11:25:00,72.7,38.7,29.91,SSW,211,22.0,29.0,31,0.00,,,0.00,meteohub,2013-06-18 18:25:00,
2013-06-18 11:30:00,73.0,38.7,29.91,West,262,23.0,29.0,31,0.00,,,0.00,meteohub,2013-06-18 18:30:00,
2013-06-18 11:35:00,73.2,39.6,29.91,SSW,208,30.0,30.0,32,0.00,,,0.00,meteohub,2013-06-18 18:35:00,
2013-06-18 11:41:00,72.9,39.6,29.91,SW,223,23.0,32.0,32,0.00,,,0.00,meteohub,2013-06-18 18:41:00,
2013-06-18 11:46:00,72.9,39.6,29.91,WSW,248,19.0,32.0,32,0.00,,,0.00,meteohub,2013-06-18 18:46:00,
2013-06-18 11:51:00,73.2,39.6,29.91,WSW,242,20.0,32.0,32,0.00,,,0.00,meteohub,2013-06-18 18:51:00,
2013-06-18 11:56:00,73.0,39.7,29.91,WSW,257,15.0,29.0,32,0.00,,,0.00,meteohub,2013-06-18 18:56:00,
2013-06-18 12:01:00,73.6,39.7,29.91,SW,236,19.0,29.0,32,0.00,,,0.00,meteohub,2013-06-18 19:01:00,
2013-06-18 12:07:00,73.9,39.7,29.92,SSW,197,15.0,29.0,32,0.00,,,0.00,meteohub,2013-06-18 19:07:00,
2013-06-18 12:12:00,73.8,39.7,29.91,WNW,296,8.0,28.0,32,0.00,,,0.00,meteohub,2013-06-18 19:12:00,
2013-06-18 12:17:00,74.1,39.7,29.92,West,280,14.0,27.0,32,0.00,,,0.00,meteohub,2013-06-18 19:17:00,
2013-06-18 12:22:00,74.1,39.9,29.91,NNE,15,18.0,27.0,32,0.00,,,0.00,meteohub,2013-06-18 19:22:00,
2013-06-18 12:27:00,73.8,39.9,29.91,SW,219,16.0,23.0,32,0.00,,,0.00,meteohub,2013-06-18 19:27:00,
2013-06-18 12:32:00,73.8,39.9,29.92,NE,43,10.0,25.0,32,0.00,,,0.00,meteohub,2013-06-18 19:32:00,
2013-06-18 12:37:00,74.3,39.9,29.91,WSW,243,17.0,25.0,32,0.00,,,0.00,meteohub,2013-06-18 19:37:00,
2013-06-18 12:42:00,73.6,39.9,29.91,NNW,337,7.0,24.0,32,0.00,,,0.00,meteohub,2013-06-18 19:42:00,
2013-06-18 12:47:00,74.8,40.1,29.91,WSW,256,19.0,24.0,32,0.00,,,0.00,meteohub,2013-06-18 19:47:00,
2013-06-18 12:52:00,75.2,40.1,29.91,WSW,256,13.0,24.0,32,0.00,,,0.00,meteohub,2013-06-18 19:52:00,
2013-06-18 12:57:00,75.4,40.1,29.91,WNW,300,14.0,22.0,32,0.00,,,0.00,meteohub,2013-06-18 19:57:00,
2013-06-18 13:02:00,75.4,40.1,29.91,NNE,15,13.0,22.0,32,0.00,,,0.00,meteohub,2013-06-18 20:02:00,
2013-06-18 13:08:00,74.5,40.1,29.91,WSW,255,18.0,27.0,32,0.00,,,0.00,meteohub,2013-06-18 20:08:00,
2013-06-18 13:13:00,74.1,40.1,29.91,SSE,162,13.0,27.0,32,0.00,,,0.00,meteohub,2013-06-18 20:13:00,
2013-06-18 13:18:00,73.8,40.3,29.91,NW,305,12.0,27.0,32,0.00,,,0.00,meteohub,2013-06-18 20:18:00,
2013-06-18 13:23:00,74.7,40.3,29.91,WSW,248,10.0,26.0,32,0.00,,,0.00,meteohub,2013-06-18 20:23:00,
2013-06-18 13:28:00,75.7,40.3,29.91,SW,218,15.0,25.0,32,0.00,,,0.00,meteohub,2013-06-18 20:28:00,
2013-06-18 13:33:00,75.4,40.3,29.91,ESE,114,12.0,25.0,32,0.00,,,0.00,meteohub,2013-06-18 20:33:00,
2013-06-18 13:39:00,75.4,40.3,29.90,NNE,23,10.0,21.0,32,0.00,,,0.00,meteohub,2013-06-18 20:39:00,
2013-06-18 13:44:00,75.6,40.3,29.90,SW,225,6.0,22.0,32,0.00,,,0.00,meteohub,2013-06-18 20:44:00,
2013-06-18 13:50:00,75.0,40.5,29.90,WNW,287,8.0,22.0,32,0.00,,,0.00,meteohub,2013-06-18 20:50:00,
2013-06-18 13:55:00,75.0,40.5,29.91,NNE,15,12.0,22.0,32,0.00,,,0.00,meteohub,2013-06-18 20:55:00,
2013-06-18 14:00:00,75.6,40.5,29.90,North,358,7.0,25.0,32,0.00,,,0.00,meteohub,2013-06-18 21:00:00,
2013-06-18 14:06:00,74.7,40.6,29.90,NNE,13,11.0,23.0,32,0.00,,,0.00,meteohub,2013-06-18 21:06:00,
2013-06-18 14:11:00,74.1,40.6,29.90,SW,222,13.0,23.0,32,0.00,,,0.00,meteohub,2013-06-18 21:11:00,
2013-06-18 14:16:00,74.8,40.6,29.90,North,359,6.0,24.0,32,0.00,,,0.00,meteohub,2013-06-18 21:16:00,
2013-06-18 14:21:00,75.4,40.8,29.89,ENE,72,7.0,24.0,32,0.00,,,0.00,meteohub,2013-06-18 21:21:00,
2013-06-18 14:26:00,74.5,40.8,29.89,NNE,31,7.0,24.0,32,0.00,,,0.00,meteohub,2013-06-18 21:26:00,
2013-06-18 14:31:00,74.1,40.8,29.89,West,269,13.0,23.0,32,0.00,,,0.00,meteohub,2013-06-18 21:31:00,
2013-06-18 14:37:00,74.1,40.8,29.89,ESE,108,9.0,23.0,32,0.00,,,0.00,meteohub,2013-06-18 21:37:00,
2013-06-18 14:42:00,73.9,41.0,29.89,SSW,201,17.0,21.0,32,0.00,,,0.00,meteohub,2013-06-18 21:42:00,
2013-06-18 14:47:00,74.3,41.2,29.89,East,89,6.0,20.0,32,0.00,,,0.00,meteohub,2013-06-18 21:47:00,
2013-06-18 14:52:00,73.9,41.2,29.89,WNW,287,9.0,20.0,32,0.00,,,0.00,meteohub,2013-06-18 21:52:00,
2013-06-18 14:57:00,74.5,41.2,29.88,West,274,10.0,22.0,32,0.00,,,0.00,meteohub,2013-06-18 21:57:00,
2013-06-18 15:02:00,74.1,41.4,29.88,ENE,70,8.0,22.0,32,0.00,,,0.00,meteohub,2013-06-18 22:02:00,
2013-06-18 15:07:00,73.8,41.4,29.88,NNE,27,13.0,22.0,32,0.00,,,0.00,meteohub,2013-06-18 22:07:00,
2013-06-18 15:12:00,73.6,41.4,29.88,SSW,212,13.0,23.0,32,0.00,,,0.00,meteohub,2013-06-18 22:12:00,
2013-06-18 15:17:00,73.6,41.4,29.88,NW,325,4.0,23.0,32,0.00,,,0.00,meteohub,2013-06-18 22:17:00,
2013-06-18 15:22:00,73.2,41.4,29.87,ESE,105,11.0,23.0,32,0.00,,,0.00,meteohub,2013-06-18 22:22:00,
2013-06-18 15:27:00,73.4,41.4,29.87,SSE,150,9.0,23.0,32,0.00,,,0.00,meteohub,2013-06-18 22:27:00,
2013-06-18 15:32:00,73.6,41.5,29.87,NNE,27,7.0,21.0,32,0.00,,,0.00,meteohub,2013-06-18 22:32:00,
2013-06-18 15:38:00,73.4,41.5,29.87,SSW,197,8.0,23.0,32,0.00,,,0.00,meteohub,2013-06-18 22:38:00,
2013-06-18 15:43:00,73.0,41.5,29.87,NE,56,8.0,23.0,32,0.00,,,0.00,meteohub,2013-06-18 22:43:00,
2013-06-18 15:48:00,73.2,41.7,29.87,SW,228,19.0,23.0,32,0.00,,,0.00,meteohub,2013-06-18 22:48:00,
2013-06-18 15:53:00,73.2,41.9,29.86,WSW,239,8.0,24.0,32,0.00,,,0.00,meteohub,2013-06-18 22:53:00,
2013-06-18 15:59:00,73.2,42.6,29.86,SE,145,15.0,24.0,33,0.00,,,0.00,meteohub,2013-06-18 22:59:00,
2013-06-18 16:04:00,72.5,42.6,29.86,NNW,332,12.0,24.0,33,0.00,,,0.00,meteohub,2013-06-18 23:04:00,
2013-06-18 16:09:00,72.0,42.8,29.86,West,277,12.0,21.0,33,0.00,,,0.00,meteohub,2013-06-18 23:09:00,
2013-06-18 16:14:00,72.1,42.8,29.86,South,172,12.0,24.0,33,0.00,,,0.00,meteohub,2013-06-18 23:14:00,
2013-06-18 16:19:00,72.1,42.8,29.86,ENE,75,17.0,26.0,33,0.00,,,0.00,meteohub,2013-06-18 23:19:00,
2013-06-18 16:24:00,72.0,43.0,29.86,ENE,63,8.0,26.0,33,0.00,,,0.00,meteohub,2013-06-18 23:24:00,
2013-06-18 16:29:00,72.3,43.0,29.86,East,97,17.0,24.0,33,0.00,,,0.00,meteohub,2013-06-18 23:29:00,
2013-06-18 16:34:00,72.0,43.2,29.85,WSW,249,12.0,24.0,33,0.00,,,0.00,meteohub,2013-06-18 23:34:00,
2013-06-18 16:39:00,72.1,43.2,29.86,SW,235,11.0,24.0,33,0.00,,,0.00,meteohub,2013-06-18 23:39:00,
2013-06-18 16:44:00,72.1,43.2,29.85,SW,235,13.0,22.0,33,0.00,,,0.00,meteohub,2013-06-18 23:44:00,
2013-06-18 16:49:00,72.1,43.3,29.85,WSW,242,18.0,23.0,33,0.00,,,0.00,meteohub,2013-06-18 23:49:00,
2013-06-18 16:54:00,72.1,43.5,29.84,ENE,72,7.0,23.0,33,0.00,,,0.00,meteohub,2013-06-18 23:54:00,
2013-06-18 16:59:00,72.0,43.5,29.84,NW,323,9.0,23.0,33,0.00,,,0.00,meteohub,2013-06-18 23:59:00,
2013-06-18 17:04:00,71.8,43.7,29.84,West,269,17.0,24.0,33,0.00,,,0.00,meteohub,2013-06-19 00:04:00,
2013-06-18 17:09:00,71.4,43.7,29.84,South,187,17.0,30.0,33,0.00,,,0.00,meteohub,2013-06-19 00:09:00,
2013-06-18 17:14:00,71.2,43.7,29.84,NW,321,15.0,30.0,33,0.00,,,0.00,meteohub,2013-06-19 00:14:00,
2013-06-18 17:20:00,70.9,43.9,29.84,SW,236,8.0,30.0,33,0.00,,,0.00,meteohub,2013-06-19 00:20:00,
2013-06-18 17:25:00,70.5,43.9,29.84,SW,226,20.0,24.0,33,0.00,,,0.00,meteohub,2013-06-19 00:25:00,
2013-06-18 17:30:00,69.6,43.9,29.84,WSW,250,19.0,27.0,33,0.00,,,0.00,meteohub,2013-06-19 00:30:00,
2013-06-18 17:36:00,69.4,43.9,29.83,NNE,19,9.0,27.0,33,0.00,,,0.00,meteohub,2013-06-19 00:36:00,
2013-06-18 17:41:00,69.1,45.0,29.83,South,172,14.0,27.0,34,0.00,,,0.00,meteohub,2013-06-19 00:41:00,
2013-06-18 17:46:00,68.5,45.1,29.83,NNW,342,11.0,26.0,34,0.00,,,0.00,meteohub,2013-06-19 00:46:00,
2013-06-18 17:51:00,68.2,45.1,29.83,WSW,245,28.0,28.0,34,0.00,,,0.00,meteohub,2013-06-19 00:51:00,
2013-06-18 17:57:00,68.2,45.1,29.83,WNW,284,12.0,28.0,34,0.00,,,0.00,meteohub,2013-06-19 00:57:00,
2013-06-18 18:02:00,67.6,45.1,29.83,ESE,104,7.0,28.0,34,0.00,,,0.00,meteohub,2013-06-19 01:02:00,
2013-06-18 18:07:00,67.3,45.1,29.84,West,262,13.0,28.0,34,0.00,,,0.00,meteohub,2013-06-19 01:07:00,
2013-06-18 18:12:00,67.1,45.3,29.84,SSW,207,17.0,25.0,34,0.00,,,0.00,meteohub,2013-06-19 01:12:00,
2013-06-18 18:17:00,66.6,45.3,29.84,NNW,340,18.0,25.0,34,0.00,,,0.00,meteohub,2013-06-19 01:17:00,
2013-06-18 18:22:00,65.7,45.5,29.83,SW,224,17.0,26.0,34,0.00,,,0.00,meteohub,2013-06-19 01:22:00,
2013-06-18 18:28:00,65.1,45.5,29.84,WSW,240,18.0,27.0,34,0.00,,,0.00,meteohub,2013-06-19 01:28:00,
2013-06-18 18:33:00,64.8,45.5,29.84,West,259,11.0,27.0,34,0.00,,,0.00,meteohub,2013-06-19 01:33:00,
2013-06-18 18:38:00,64.2,45.7,29.83,North,349,14.0,27.0,34,0.00,,,0.00,meteohub,2013-06-19 01:38:00,
2013-06-18 18:43:00,64.0,45.9,29.83,North,350,23.0,31.0,34,0.00,,,0.00,meteohub,2013-06-19 01:43:00,
2013-06-18 18:48:00,63.7,45.9,29.83,WSW,250,14.0,31.0,34,0.00,,,0.00,meteohub,2013-06-19 01:48:00,
2013-06-18 18:54:00,63.3,45.9,29.83,ENE,58,18.0,31.0,34,0.00,,,0.00,meteohub,2013-06-19 01:54:00,
2013-06-18 18:59:00,63.1,46.0,29.84,West,263,16.0,27.0,34,0.00,,,0.00,meteohub,2013-06-19 01:59:00,
2013-06-18 19:04:00,62.8,46.0,29.84,WSW,252,16.0,27.0,34,0.00,,,0.00,meteohub,2013-06-19 02:04:00,
2013-06-18 19:09:00,62.4,46.0,29.84,SW,228,17.0,24.0,34,0.00,,,0.00,meteohub,2013-06-19 02:09:00,
2013-06-18 19:15:00,61.9,46.0,29.84,NNE,12,10.0,23.0,34,0.00,,,0.00,meteohub,2013-06-19 02:15:00,
2013-06-18 19:20:00,61.3,46.0,29.83,WSW,252,14.0,25.0,34,0.00,,,0.00,meteohub,2013-06-19 02:20:00,
2013-06-18 19:25:00,61.2,46.2,29.83,WSW,243,18.0,26.0,34,0.00,,,0.00,meteohub,2013-06-19 02:25:00,
2013-06-18 19:30:00,60.6,46.2,29.83,SW,226,10.0,27.0,34,0.00,,,0.00,meteohub,2013-06-19 02:30:00,
2013-06-18 19:35:00,60.3,46.2,29.83,North,6,14.0,27.0,34,0.00,,,0.00,meteohub,2013-06-19 02:35:00,
2013-06-18 19:41:00,59.5,46.2,29.83,WSW,245,17.0,27.0,34,0.00,,,0.00,meteohub,2013-06-19 02:41:00,
2013-06-18 19:46:00,58.8,46.2,29.83,WNW,285,14.0,24.0,34,0.00,,,0.00,meteohub,2013-06-19 02:46:00,
2013-06-18 19:51:00,58.6,46.2,29.83,North,355,16.0,24.0,34,0.00,,,0.00,meteohub,2013-06-19 02:51:00,
2013-06-18 19:56:00,58.5,46.2,29.83,West,262,16.0,24.0,34,0.00,,,0.00,meteohub,2013-06-19 02:56:00,
2013-06-18 20:01:00,58.3,46.2,29.83,WNW,296,20.0,24.0,34,0.00,,,0.00,meteohub,2013-06-19 03:01:00,
2013-06-18 20:06:00,57.9,46.2,29.83,NNE,23,17.0,25.0,34,0.00,,,0.00,meteohub,2013-06-19 03:06:00,
2013-06-18 20:11:00,57.7,46.2,29.83,NNW,340,11.0,25.0,34,0.00,,,0.00,meteohub,2013-06-19 03:11:00,
2013-06-18 20:17:00,57.6,46.2,29.83,West,264,15.0,25.0,34,0.00,,,0.00,meteohub,2013-06-19 03:17:00,
2013-06-18 20:22:00,57.4,46.0,29.83,WSW,239,19.0,25.0,34,0.00,,,0.00,meteohub,2013-06-19 03:22:00,
2013-06-18 20:27:00,57.4,46.0,29.83,SSW,198,12.0,25.0,34,0.00,,,0.00,meteohub,2013-06-19 03:27:00,
2013-06-18 20:32:00,57.4,46.0,29.83,South,186,6.0,24.0,34,0.00,,,0.00,meteohub,2013-06-19 03:32:00,
2013-06-18 20:37:00,57.4,46.0,29.83,SSE,152,10.0,25.0,34,0.00,,,0.00,meteohub,2013-06-19 03:37:00,
2013-06-18 20:42:00,57.6,46.0,29.83,WSW,250,16.0,25.0,34,0.00,,,0.00,meteohub,2013-06-19 03:42:00,
2013-06-18 20:47:00,57.7,46.0,29.83,SSW,205,14.0,22.0,34,0.00,,,0.00,meteohub,2013-06-19 03:47:00,
2013-06-18 20:52:00,57.7,45.9,29.83,West,259,15.0,25.0,34,0.00,,,0.00,meteohub,2013-06-19 03:52:00,
2013-06-18 20:57:00,57.7,45.9,29.83,SSE,165,18.0,25.0,34,0.00,,,0.00,meteohub,2013-06-19 03:57:00,
2013-06-18 21:01:00,57.9,45.9,29.83,WSW,239,20.0,25.0,34,0.00,,,0.00,meteohub,2013-06-19 04:01:00,
2013-06-18 21:02:00,57.9,45.9,29.83,NW,305,14.0,25.0,34,0.00,,,0.00,meteohub,2013-06-19 04:02:00,
2013-06-18 21:07:00,57.9,45.9,29.83,SE,137,10.0,23.0,34,0.00,,,0.00,meteohub,2013-06-19 04:07:00,
2013-06-18 21:12:00,57.9,45.7,29.83,SW,235,14.0,25.0,34,0.00,,,0.00,meteohub,2013-06-19 04:12:00,
2013-06-18 21:17:00,57.9,45.5,29.83,SSW,193,11.0,26.0,34,0.00,,,0.00,meteohub,2013-06-19 04:17:00,
2013-06-18 21:23:00,57.9,45.5,29.83,WSW,238,24.0,26.0,34,0.00,,,0.00,meteohub,2013-06-19 04:23:00,
2013-06-18 21:28:00,57.9,45.5,29.83,WSW,242,14.0,26.0,34,0.00,,,0.00,meteohub,2013-06-19 04:28:00,
2013-06-18 21:33:00,58.3,45.3,29.83,WSW,237,15.0,26.0,34,0.00,,,0.00,meteohub,2013-06-19 04:33:00,
2013-06-18 21:39:00,58.3,45.3,29.83,WNW,294,7.0,26.0,34,0.00,,,0.00,meteohub,2013-06-19 04:39:00,
2013-06-18 21:44:00,58.6,45.3,29.84,SSE,158,14.0,24.0,34,0.00,,,0.00,meteohub,2013-06-19 04:44:00,
2013-06-18 21:49:00,58.5,44.4,29.84,SW,236,15.0,26.0,33,0.00,,,0.00,meteohub,2013-06-19 04:49:00,
2013-06-18 21:54:00,58.5,44.4,29.84,West,278,20.0,26.0,33,0.00,,,0.00,meteohub,2013-06-19 04:54:00,
2013-06-18 22:00:00,58.5,44.4,29.84,West,280,17.0,26.0,33,0.00,,,0.00,meteohub,2013-06-19 05:00:00,
2013-06-18 22:05:00,58.5,44.2,29.84,SSE,149,11.0,24.0,33,0.00,,,0.00,meteohub,2013-06-19 05:05:00,
2013-06-18 22:11:00,58.3,44.2,29.84,West,271,16.0,23.0,33,0.00,,,0.00,meteohub,2013-06-19 05:11:00,
2013-06-18 22:16:00,58.1,44.1,29.84,NNW,347,19.0,23.0,33,0.00,,,0.00,meteohub,2013-06-19 05:16:00,
2013-06-18 22:21:00,57.9,44.1,29.84,NNW,344,6.0,23.0,33,0.00,,,0.00,meteohub,2013-06-19 05:21:00,
2013-06-18 22:27:00,57.7,43.9,29.84,WNW,288,11.0,23.0,33,0.00,,,0.00,meteohub,2013-06-19 05:27:00,
2013-06-18 22:32:00,57.6,43.9,29.84,WSW,243,17.0,23.0,33,0.00,,,0.00,meteohub,2013-06-19 05:32:00,
2013-06-18 22:37:00,57.7,43.9,29.84,SSW,212,19.0,22.0,33,0.00,,,0.00,meteohub,2013-06-19 05:37:00,
2013-06-18 22:42:00,57.7,43.9,29.84,North,352,15.0,22.0,33,0.00,,,0.00,meteohub,2013-06-19 05:42:00,
2013-06-18 22:47:00,57.6,43.9,29.84,WNW,294,14.0,25.0,33,0.00,,,0.00,meteohub,2013-06-19 05:47:00,
2013-06-18 22:52:00,57.4,43.7,29.84,WSW,246,12.0,25.0,33,0.00,,,0.00,meteohub,2013-06-19 05:52:00,
2013-06-18 22:57:00,57.4,43.7,29.83,WSW,246,18.0,25.0,33,0.00,,,0.00,meteohub,2013-06-19 05:57:00,
2013-06-18 23:02:00,57.4,43.7,29.83,WNW,294,12.0,23.0,33,0.00,,,0.00,meteohub,2013-06-19 06:02:00,
2013-06-18 23:08:00,57.6,43.5,29.83,West,277,18.0,23.0,33,0.00,,,0.00,meteohub,2013-06-19 06:08:00,
2013-06-18 23:13:00,57.6,43.5,29.83,NE,47,7.0,23.0,33,0.00,,,0.00,meteohub,2013-06-19 06:13:00,
2013-06-18 23:18:00,57.6,43.3,29.83,WSW,257,12.0,23.0,33,0.00,,,0.00,meteohub,2013-06-19 06:18:00,
2013-06-18 23:24:00,57.6,42.6,29.83,WSW,252,19.0,24.0,32,0.00,,,0.00,meteohub,2013-06-19 06:24:00,
2013-06-18 23:29:00,57.6,42.4,29.83,NW,321,19.0,29.0,32,0.00,,,0.00,meteohub,2013-06-19 06:29:00,
2013-06-18 23:34:00,57.6,42.4,29.83,NNE,12,13.0,29.0,32,0.00,,,0.00,meteohub,2013-06-19 06:34:00,
2013-06-18 23:39:00,57.6,42.3,29.83,WSW,240,17.0,26.0,32,0.00,,,0.00,meteohub,2013-06-19 06:39:00,
2013-06-18 23:45:00,57.6,42.3,29.83,West,262,10.0,26.0,32,0.00,,,0.00,meteohub,2013-06-19 06:45:00,
2013-06-18 23:50:00,57.6,42.1,29.83,West,277,16.0,24.0,32,0.00,,,0.00,meteohub,2013-06-19 06:50:00,
2013-06-18 23:56:00,57.6,42.1,29.83,NE,56,12.0,24.0,32,0.00,,,0.00,meteohub,2013-06-19 06:56:00,